Weather History for KCKV - October, 2014

Change the Weather History Date:

Thursday, October 9, 2014

  Actual Average Record
Temperature  
Mean Temperature 67 °F -  
Max Temperature 81 °F - 87 °F (1963)
Min Temperature 53 °F - 34 °F (1978)
Degree Days  
Heating Degree Days 0    
Month to date heating degree days 34  
Since 1 July heating degree days 60  
Cooling Degree Days 2    
Month to date cooling degree days 26  
Growing Degree Days 18 (Base 50)    
Moisture  
Dew Point 61 °F    
Average Humidity 79    
Maximum Humidity 100    
Minimum Humidity 58    
Precipitation  
Precipitation 0.15 in - 1.02 in (1990)
Month to date precipitation 1.09  
Sea Level Pressure  
Sea Level Pressure 30.07 in    
Wind  
Wind Speed 6 mph (SE)    
Max Wind Speed 24 mph    
Max Gust Speed 31 mph    
Visibility 9 miles    
Events Rain , Thunderstorm    
T = Trace of Precipitation, MM = Missing Value Source: NWS Daily Summary

Daily Weather History Graph

Daily Weather History Graph

Search for Another Location

Airport or City:

Trip Planner

Search our weather history database for the weather conditions in past years. The results will help you decide how hot, cold, wet, or windy it might be!

Date:

Astronomy

Oct. 09, 2014 Rise Set
Actual Time 6:51 AM CDT 6:21 PM CDT
Civil Twilight 6:25 AM CDT 6:47 PM CDT
Nautical Twilight 5:55 AM CDT 7:17 PM CDT
Astronomical Twilight 5:25 AM CDT 7:47 PM CDT
Moon 7:20 PM CDT (10/9) 8:04 AM CDT (10/9)
Length of Visible Light 12h 21m
Length of Day
11h 29m
Full, 98% of the Moon is Illuminated
Oct 9
Full
Oct 15
Last Quarter
Oct 23
New
Oct 30
First Quarter
Nov 6
Full

Hourly Weather History & Observations

Time (CDT) Temp. Heat Index Dew Point Humidity Pressure Visibility Wind Dir Wind Speed Gust Speed Precip Events Conditions
12:52 AM 55.0 °F - 54.0 °F 96% 30.08 in 10.0 mi Calm Calm - N/A   Clear
1:52 AM 55.0 °F - 53.1 °F 93% 30.07 in 10.0 mi Calm Calm - N/A   Clear
2:52 AM 55.9 °F - 55.0 °F 97% 30.04 in 10.0 mi Calm Calm - N/A   Clear
3:52 AM 57.9 °F - 57.0 °F 97% 30.05 in 10.0 mi SE 4.6 mph - N/A   Clear
4:52 AM 59.0 °F - 57.0 °F 93% 30.06 in 10.0 mi Calm Calm - N/A   Clear
5:52 AM 57.9 °F - 57.0 °F 97% 30.06 in 10.0 mi ENE 4.6 mph - N/A   Mostly Cloudy
6:52 AM 60.1 °F - 57.9 °F 93% 30.06 in 10.0 mi SE 3.5 mph - N/A Thunderstorm Mostly Cloudy
7:25 AM 61.0 °F - 57.0 °F 87% 30.08 in 8.0 mi Calm Calm - N/A Thunderstorm Overcast
7:52 AM 60.1 °F - 57.0 °F 90% 30.10 in 7.0 mi North 6.9 mph - N/A Thunderstorm Overcast
8:00 AM 60.1 °F - 57.0 °F 90% 30.15 in 7.0 mi NNW 11.5 mph 20.7 mph N/A Thunderstorm Overcast
8:08 AM 62.1 °F - 57.0 °F 84% 30.15 in 9.0 mi NNW 19.6 mph 31.1 mph N/A Thunderstorm Thunderstorm
8:21 AM 61.0 °F - 57.9 °F 90% 30.14 in 3.0 mi North 16.1 mph - 0.07 in Rain , Thunderstorm Thunderstorms and Rain
8:29 AM 60.1 °F - 57.9 °F 93% 30.13 in 2.5 mi NNE 9.2 mph 21.9 mph 0.13 in Rain , Thunderstorm Light Thunderstorms and Rain
8:37 AM 61.0 °F - 59.0 °F 93% 30.13 in 10.0 mi NNE 10.4 mph - 0.13 in Rain , Thunderstorm Light Thunderstorms and Rain
8:52 AM 61.0 °F - 59.0 °F 93% 30.12 in 10.0 mi East 6.9 mph - 0.13 in Thunderstorm Mostly Cloudy
9:02 AM 61.0 °F - 59.0 °F 93% 30.13 in 10.0 mi South 5.8 mph - N/A   Scattered Clouds
9:52 AM 64.0 °F - 62.1 °F 93% 30.13 in 10.0 mi SE 9.2 mph - 0.00 in   Mostly Cloudy
10:09 AM 64.9 °F - 62.1 °F 90% 30.13 in 10.0 mi SE 6.9 mph - N/A   Overcast
10:20 AM 64.9 °F - 62.1 °F 90% 30.13 in 10.0 mi SE 8.1 mph - N/A   Overcast
10:52 AM 66.0 °F - 62.1 °F 87% 30.12 in 10.0 mi SE 8.1 mph - N/A   Overcast
11:52 AM 71.1 °F - 63.0 °F 75% 30.10 in 10.0 mi SSE 5.8 mph - N/A   Mostly Cloudy
12:52 PM 73.9 °F - 64.0 °F 71% 30.08 in 10.0 mi SSE 6.9 mph - N/A   Partly Cloudy
1:52 PM 75.9 °F - 64.0 °F 67% 30.05 in 10.0 mi SSE 6.9 mph - N/A   Clear
2:52 PM 79.0 °F - 64.9 °F 62% 30.03 in 10.0 mi South 11.5 mph - N/A   Partly Cloudy
3:52 PM 80.1 °F 81.9 °F 64.9 °F 60% 29.99 in 10.0 mi SSW 9.2 mph - N/A   Clear
4:52 PM 79.0 °F - 64.9 °F 62% 29.98 in 10.0 mi SSW 3.5 mph - N/A   Clear
5:52 PM 75.0 °F - 66.0 °F 73% 29.99 in 10.0 mi SE 5.8 mph - N/A   Scattered Clouds
6:52 PM 72.0 °F - 66.0 °F 81% 29.99 in 10.0 mi ESE 4.6 mph - N/A   Clear
7:52 PM 71.1 °F - 66.0 °F 84% 29.99 in 10.0 mi Calm Calm - N/A   Clear
8:52 PM 73.0 °F - 66.9 °F 81% 29.99 in 10.0 mi South 4.6 mph - N/A   Clear
9:52 PM 72.0 °F - 66.9 °F 84% 29.99 in 10.0 mi South 3.5 mph - N/A   Partly Cloudy
10:52 PM 70.0 °F - 66.0 °F 87% 29.99 in 10.0 mi South 3.5 mph - N/A   Clear
11:52 PM 71.1 °F - 62.1 °F 73% 29.99 in 10.0 mi West 13.8 mph 24.2 mph N/A   Mostly Cloudy